,,Stat5,,Stat1,,Stat2,,Stat3,,Stat4,,Wind1,,Wind1,
time,status,PA1M_AVG,status,PR1M_SUM,status,RH1M_AVG,status,SR1M_AVG,status,TA1M_AVG,status,W1dAve1m,status,W1sAve1m,
2003-06-06, 00:00:01,VALID,917.516,VALID,0,VALID,82.4114,VALID,-0.101885,VALID,21.7629,VALID,105,VALID,0.595152,
2003-06-06, 00:01:00,VALID,917.516,VALID,0,VALID,82.5691,VALID,-0.0849042,VALID,21.737,VALID,75,VALID,0.645904,
2003-06-06, 00:02:00,VALID,917.525,VALID,0,VALID,83.0002,VALID,-0.101885,VALID,21.6725,VALID,79,VALID,0.789907,
2003-06-06, 00:03:00,VALID,917.527,VALID,0,VALID,83.1973,VALID,-0.101885,VALID,21.6372,VALID,83,VALID,0.865809,
2003-06-06, 00:04:00,VALID,917.533,VALID,0,VALID,83.0434,VALID,-0.101885,VALID,21.6243,VALID,58,VALID,0.604441,
2003-06-06, 00:05:00,VALID,917.537,VALID,0,VALID,83.5991,VALID,-0.0849042,VALID,21.5207,VALID,51,VALID,0.569839,
2003-06-06, 00:06:00,VALID,917.526,VALID,0,VALID,83.9564,VALID,-0.0679233,VALID,21.4563,VALID,78,VALID,0.260016,
2003-06-06, 00:07:00,VALID,917.506,VALID,0,VALID,84.0747,VALID,-0.0849042,VALID,21.4071,VALID,131,VALID,0.501953,
2003-06-06, 00:08:00,VALID,917.488,VALID,0,VALID,84.2692,VALID,-0.0849042,VALID,21.3988,VALID,132,VALID,0.367622,
2003-06-06, 00:09:00,VALID,917.468,VALID,0,VALID,84.6316,VALID,-0.118866,VALID,21.3339,VALID,119,VALID,0.632813,
2003-06-06, 00:10:00,VALID,917.469,VALID,0,VALID,84.844,VALID,-0.101885,VALID,21.2755,VALID,90,VALID,0.691071,
2003-06-06, 00:11:00,VALID,917.432,VALID,0,VALID,84.7779,VALID,-0.0509425,VALID,21.2914,VALID,90,VALID,0.601963,
2003-06-06, 00:12:00,VALID,917.415,VALID,0,VALID,84.6647,VALID,0,VALID,21.2935,VALID,130,VALID,0.518229,
2003-06-06, 00:13:00,VALID,917.368,VALID,0,VALID,84.3926,VALID,0,VALID,21.3126,VALID,156,VALID,0.16139,
2003-06-06, 00:14:00,VALID,917.336,VALID,0,VALID,83.7161,VALID,0,VALID,21.2682,VALID,149,VALID,0.14605,
2003-06-06, 00:15:00,VALID,917.316,VALID,0,VALID,84.4854,VALID,0,VALID,21.1135,VALID,108,VALID,0.282335,
2003-06-06, 00:16:00,VALID,917.29,VALID,0,VALID,85.9948,VALID,0,VALID,20.968,VALID,108,VALID,0.249132,
2003-06-06, 00:17:00,VALID,917.292,VALID,0,VALID,86.7107,VALID,0,VALID,20.8741,VALID,108,VALID,0.376116,
2003-06-06, 00:18:00,VALID,917.284,VALID,0,VALID,86.7679,VALID,0,VALID,20.7998,VALID,157,VALID,0.552284,
2003-06-06, 00:19:00,VALID,917.278,VALID,0,VALID,87.1214,VALID,0,VALID,20.7417,VALID,178,VALID,0.127131,
2003-06-06, 00:20:00,VALID,917.253,VALID,0,VALID,87.2664,VALID,0,VALID,20.7094,VALID,178,VALID,0.196957,
2003-06-06, 00:21:00,VALID,917.221,VALID,0,VALID,87.3936,VALID,0,VALID,20.7062,VALID,189,VALID,0.35395,
2003-06-06, 00:22:00,VALID,917.231,VALID,0,VALID,87.1354,VALID,0.0169808,VALID,20.6771,VALID,172,VALID,0.992839,
2003-06-06, 00:23:00,VALID,917.213,VALID,0,VALID,87.8145,VALID,0,VALID,20.655,VALID,175,VALID,0.797092,
2003-06-06, 00:24:00,VALID,917.188,VALID,0,VALID,87.0032,VALID,0,VALID,20.6513,VALID,168,VALID,0.279687,
2003-06-06, 00:25:00,VALID,917.161,VALID,0,VALID,86.6891,VALID,0.0169808,VALID,20.5808,VALID,160,VALID,0.280649,
2003-06-06, 00:26:00,VALID,917.147,VALID,0,VALID,87.8679,VALID,0,VALID,20.4613,VALID,143,VALID,0.0774148,
2003-06-06, 00:27:00,VALID,917.143,VALID,0,VALID,88.4426,VALID,-0.0169808,VALID,20.3672,VALID,143,VALID,0.104235,
2003-06-06, 00:28:00,VALID,917.139,VALID,0,VALID,88.2239,VALID,0,VALID,20.2996,VALID,143,VALID,0.0483941,
2003-06-06, 00:29:00,VALID,917.14,VALID,0,VALID,89.1662,VALID,0.0169808,VALID,20.2711,VALID,192,VALID,0.535807,
2003-06-06, 00:30:00,VALID,917.14,VALID,0,VALID,89.4345,VALID,-0.0169808,VALID,20.3101,VALID,230,VALID,0.518446,
2003-06-06, 00:31:00,VALID,917.159,VALID,0,VALID,88.7338,VALID,0.0169808,VALID,20.287,VALID,177,VALID,0.31942,
2003-06-06, 00:32:00,VALID,917.184,VALID,0,VALID,89.4841,VALID,0,VALID,20.2162,VALID,106,VALID,0.267027,
2003-06-06, 00:33:00,VALID,917.173,VALID,0,VALID,89.4485,VALID,0,VALID,20.1874,VALID,44,VALID,0.411458,
2003-06-06, 00:34:00,VALID,917.157,VALID,0,VALID,89.1446,VALID,-0.0339617,VALID,20.0613,VALID,23,VALID,0.42722,
2003-06-06, 00:35:00,VALID,917.15,VALID,0,VALID,89.4688,VALID,0,VALID,19.919,VALID,23,VALID,0.0173611,
2003-06-06, 00:36:00,VALID,917.104,VALID,0,VALID,90.0538,VALID,0,VALID,19.848,VALID,23,VALID,0,
2003-06-06, 00:37:00,VALID,917.107,VALID,0,VALID,90.5395,VALID,0,VALID,19.8127,VALID,23,VALID,0,
2003-06-06, 00:38:00,VALID,917.11,VALID,0,VALID,91.0736,VALID,0,VALID,19.7968,VALID,23,VALID,0.0265625,
2003-06-06, 00:39:00,VALID,917.099,VALID,0,VALID,91.216,VALID,0.0169808,VALID,19.7804,VALID,23,VALID,0,
2003-06-06, 00:40:00,VALID,917.077,VALID,0,VALID,91.1626,VALID,0.0169808,VALID,19.7772,VALID,23,VALID,0,
2003-06-06, 00:41:00,VALID,917.063,VALID,0,VALID,89.9495,VALID,-0.0509425,VALID,19.6714,VALID,23,VALID,0.321135,
2003-06-06, 00:42:00,VALID,917.049,VALID,0,VALID,90.9019,VALID,-0.101885,VALID,19.4979,VALID,25,VALID,0.564236,
2003-06-06, 00:43:00,VALID,917.02,VALID,0,VALID,91.9752,VALID,-0.101885,VALID,19.3623,VALID,46,VALID,0.925998,
2003-06-06, 00:44:00,VALID,917.029,VALID,0,VALID,93.1692,VALID,-0.0849042,VALID,19.334,VALID,46,VALID,0.53928,
2003-06-06, 00:45:00,VALID,916.996,VALID,0,VALID,93.5227,VALID,-0.0849042,VALID,19.3139,VALID,46,VALID,0.19308,
2003-06-06, 00:46:00,VALID,916.987,VALID,0,VALID,93.8177,VALID,-0.101885,VALID,19.3206,VALID,46,VALID,0.0384615,
2003-06-06, 00:47:00,VALID,916.987,VALID,0,VALID,93.8571,VALID,-0.0849042,VALID,19.3467,VALID,77,VALID,1.07505,
2003-06-06, 00:48:00,VALID,916.973,VALID,0,VALID,93.1654,VALID,-0.101885,VALID,19.5369,VALID,63,VALID,1.48972,
2003-06-06, 00:49:00,VALID,916.972,VALID,0,VALID,90.7951,VALID,-0.101885,VALID,19.8311,VALID,26,VALID,0.828776,
2003-06-06, 00:50:00,VALID,916.992,VALID,0,VALID,90.2064,VALID,-0.118866,VALID,19.954,VALID,36,VALID,0.43099,
2003-06-06, 00:51:00,VALID,916.993,VALID,0,VALID,90.125,VALID,-0.101885,VALID,19.993,VALID,36,VALID,0.256076,
2003-06-06, 00:52:00,VALID,916.996,VALID,0,VALID,90.3081,VALID,-0.101885,VALID,19.9833,VALID,36,VALID,0.102455,
2003-06-06, 00:53:00,VALID,917.014,VALID,0,VALID,90.3946,VALID,-0.135847,VALID,19.9766,VALID,36,VALID,0.00380609,
2003-06-06, 00:54:00,VALID,917.017,VALID,0,VALID,90.2801,VALID,-0.0849042,VALID,19.9275,VALID,37,VALID,0.406013,
2003-06-06, 00:55:00,VALID,916.998,VALID,0,VALID,90.6934,VALID,-0.101885,VALID,19.8892,VALID,36,VALID,0.378289,
2003-06-06, 00:56:00,VALID,916.948,VALID,0,VALID,90.3144,VALID,-0.0509425,VALID,19.8301,VALID,98,VALID,0.449436,
2003-06-06, 00:57:00,VALID,916.941,VALID,0,VALID,90.6692,VALID,0,VALID,19.7231,VALID,106,VALID,1.05924,
2003-06-06, 00:58:00,VALID,916.939,VALID,0,VALID,91.0011,VALID,-0.0169808,VALID,19.8525,VALID,67,VALID,1.63194,
2003-06-06, 00:59:00,VALID,916.91,VALID,0,VALID,89.3671,VALID,-0.0169808,VALID,20.1691,VALID,60,VALID,1.23504,
2003-06-06, 01:00:00,VALID,916.905,VALID,0,VALID,88.5177,VALID,0,VALID,20.3521,VALID,67,VALID,1.16466,
2003-06-06, 01:01:00,VALID,916.902,VALID,0,VALID,87.7331,VALID,0,VALID,20.5081,VALID,66,VALID,0.530777,
2003-06-06, 01:02:00,VALID,916.883,VALID,0,VALID,87.5996,VALID,-0.0169808,VALID,20.5468,VALID,68,VALID,0.384868,
2003-06-06, 01:03:00,VALID,916.875,VALID,0,VALID,87.0095,VALID,0,VALID,20.4723,VALID,66,VALID,0.839627,
2003-06-06, 01:04:00,VALID,916.883,VALID,0,VALID,87.873,VALID,-0.0169808,VALID,20.3983,VALID,26,VALID,0.619358,
2003-06-06, 01:05:00,VALID,916.865,VALID,0,VALID,88.1133,VALID,0,VALID,20.2888,VALID,46,VALID,0.485243,
2003-06-06, 01:06:00,VALID,916.881,VALID,0,VALID,88.7771,VALID,0,VALID,20.2113,VALID,48,VALID,0.619643,
2003-06-06, 01:07:00,VALID,916.874,VALID,0,VALID,88.6919,VALID,0,VALID,20.1139,VALID,39,VALID,1.4998,
2003-06-06, 01:08:00,VALID,916.874,VALID,0,VALID,89.2234,VALID,-0.0169808,VALID,20.0591,VALID,54,VALID,0.817945,
2003-06-06, 01:09:00,VALID,916.844,VALID,0,VALID,89.5121,VALID,-0.0169808,VALID,20.104,VALID,70,VALID,1.02981,
2003-06-06, 01:10:00,VALID,916.842,VALID,0,VALID,89.2056,VALID,0,VALID,20.1952,VALID,54,VALID,0.71224,
2003-06-06, 01:11:00,VALID,916.835,VALID,0,VALID,87.3554,VALID,0,VALID,20.1855,VALID,48,VALID,0.495226,
2003-06-06, 01:12:00,VALID,916.804,VALID,0,VALID,88.8674,VALID,-0.0169808,VALID,20.1112,VALID,126,VALID,0.732422,
2003-06-06, 01:13:00,VALID,916.786,VALID,0,VALID,89.9215,VALID,0,VALID,20.1306,VALID,99,VALID,1.07879,
2003-06-06, 01:14:00,VALID,916.779,VALID,0,VALID,89.3544,VALID,0,VALID,20.211,VALID,95,VALID,0.848958,
2003-06-06, 01:15:00,VALID,916.742,VALID,0,VALID,89.0492,VALID,0,VALID,20.2818,VALID,106,VALID,0.837121,
2003-06-06, 01:16:00,VALID,916.747,VALID,0,VALID,86.3089,VALID,0,VALID,20.2883,VALID,69,VALID,0.734375,
2003-06-06, 01:17:00,VALID,916.747,VALID,0,VALID,88.8496,VALID,0,VALID,20.1887,VALID,119,VALID,1.10286,
2003-06-06, 01:18:00,VALID,916.735,VALID,0,VALID,88.6156,VALID,0,VALID,20.2595,VALID,134,VALID,0.626085,
2003-06-06, 01:19:00,VALID,916.743,VALID,0,VALID,87.9836,VALID,0,VALID,20.2729,VALID,106,VALID,0.438368,
2003-06-06, 01:20:00,VALID,916.732,VALID,0,VALID,88.8788,VALID,-0.0169808,VALID,20.2721,VALID,117,VALID,0.661161,
2003-06-06, 01:21:00,VALID,916.726,VALID,0,VALID,88.6995,VALID,0,VALID,20.3146,VALID,108,VALID,0.373397,
2003-06-06, 01:22:00,VALID,916.702,VALID,0,VALID,88.5406,VALID,-0.0169808,VALID,20.3377,VALID,132,VALID,0.575758,
2003-06-06, 01:23:00,VALID,916.675,VALID,0,VALID,88.5914,VALID,-0.0169808,VALID,20.3409,VALID,130,VALID,0.0727796,
2003-06-06, 01:24:00,VALID,916.657,VALID,0,VALID,88.3638,VALID,0,VALID,20.331,VALID,130,VALID,0.0401476,
2003-06-06, 01:25:00,VALID,916.658,VALID,0,VALID,88.5482,VALID,-0.0169808,VALID,20.3084,VALID,130,VALID,0.222439,
2003-06-06, 01:26:00,VALID,916.638,VALID,0,VALID,88.2112,VALID,0.0339617,VALID,20.2624,VALID,130,VALID,0.0449219,
2003-06-06, 01:27:00,VALID,916.611,VALID,0,VALID,88.4439,VALID,0.0339617,VALID,20.2339,VALID,156,VALID,0.339955,
2003-06-06, 01:28:00,VALID,916.604,VALID,0,VALID,88.4757,VALID,0.0339617,VALID,20.2016,VALID,145,VALID,0.365184,
2003-06-06, 01:29:00,VALID,916.592,VALID,0,VALID,88.4693,VALID,0.0169808,VALID,20.111,VALID,110,VALID,0.298059,
2003-06-06, 01:30:00,VALID,916.571,VALID,0,VALID,89.9139,VALID,0.0339617,VALID,20.0563,VALID,97,VALID,0.720189,
2003-06-06, 01:31:00,VALID,916.56,VALID,0,VALID,89.7753,VALID,0.0849042,VALID,20.105,VALID,79,VALID,0.895399,
2003-06-06, 01:32:00,VALID,916.542,VALID,0,VALID,89.3569,VALID,0.0679233,VALID,20.1363,VALID,86,VALID,0.472439,
2003-06-06, 01:33:00,VALID,916.545,VALID,0,VALID,89.4103,VALID,0.0509425,VALID,20.1884,VALID,135,VALID,0.860853,
2003-06-06, 01:34:00,VALID,916.526,VALID,0,VALID,89.1636,VALID,0.0169808,VALID,20.2046,VALID,128,VALID,0.758705,
2003-06-06, 01:35:00,VALID,916.515,VALID,0,VALID,89.2806,VALID,0.0509425,VALID,20.1984,VALID,121,VALID,0.770833,
2003-06-06, 01:36:00,VALID,916.497,VALID,0,VALID,89.3849,VALID,0,VALID,20.2019,VALID,92,VALID,0.812263,
2003-06-06, 01:37:00,VALID,916.454,VALID,0,VALID,89.226,VALID,0,VALID,20.2304,VALID,104,VALID,0.578536,
2003-06-06, 01:38:00,VALID,916.431,VALID,0,VALID,88.5456,VALID,0,VALID,20.2404,VALID,119,VALID,0.696615,
2003-06-06, 01:39:00,VALID,916.386,VALID,0,VALID,89.1306,VALID,0.0169808,VALID,20.2212,VALID,119,VALID,1.23828,
2003-06-06, 01:40:00,VALID,916.369,VALID,0,VALID,88.9589,VALID,0,VALID,20.2697,VALID,138,VALID,0.622613,
2003-06-06, 01:41:00,VALID,916.343,VALID,0,VALID,88.9106,VALID,-0.0509425,VALID,20.2895,VALID,153,VALID,0.771652,
2003-06-06, 01:42:00,VALID,916.318,VALID,0,VALID,89.1319,VALID,-0.0679233,VALID,20.268,VALID,142,VALID,0.717147,
2003-06-06, 01:43:00,VALID,916.296,VALID,0,VALID,89.2361,VALID,-0.0509425,VALID,20.2324,VALID,145,VALID,0.770123,
2003-06-06, 01:44:00,VALID,916.289,VALID,0,VALID,89.5248,VALID,-0.0849042,VALID,20.1676,VALID,166,VALID,0.422286,
2003-06-06, 01:45:00,VALID,916.273,VALID,0,VALID,88.9055,VALID,-0.0679233,VALID,20.0673,VALID,114,VALID,0.315755,
2003-06-06, 01:46:00,VALID,916.259,VALID,0,VALID,90.1059,VALID,-0.0679233,VALID,19.9898,VALID,159,VALID,0.767578,
2003-06-06, 01:47:00,VALID,916.237,VALID,0,VALID,90.7061,VALID,-0.101885,VALID,19.961,VALID,151,VALID,0.647569,
2003-06-06, 01:48:00,VALID,916.222,VALID,0,VALID,90.8256,VALID,-0.101885,VALID,19.9615,VALID,170,VALID,0.547321,
2003-06-06, 01:49:00,VALID,916.213,VALID,0,VALID,90.6896,VALID,-0.101885,VALID,19.9357,VALID,153,VALID,0.786859,
2003-06-06, 01:50:00,VALID,916.176,VALID,0,VALID,91.052,VALID,-0.0849042,VALID,19.8934,VALID,162,VALID,0.699337,
2003-06-06, 01:51:00,VALID,916.143,VALID,0,VALID,90.5204,VALID,-0.0849042,VALID,19.8353,VALID,115,VALID,0.936678,
2003-06-06, 01:52:00,VALID,916.132,VALID,0,VALID,91.2465,VALID,-0.101885,VALID,19.8095,VALID,151,VALID,0.966146,
2003-06-06, 01:53:00,VALID,916.112,VALID,0,VALID,91.3025,VALID,-0.0849042,VALID,19.8098,VALID,151,VALID,0.739149,
2003-06-06, 01:54:00,VALID,916.112,VALID,0,VALID,91.2414,VALID,-0.101885,VALID,19.7931,VALID,146,VALID,0.562283,
2003-06-06, 01:55:00,VALID,916.12,VALID,0,VALID,91.5403,VALID,-0.0849042,VALID,19.7966,VALID,137,VALID,0.956473,
2003-06-06, 01:56:00,VALID,916.117,VALID,0,VALID,91.1206,VALID,-0.0679233,VALID,19.8286,VALID,133,VALID,0.792468,
2003-06-06, 01:57:00,VALID,916.115,VALID,0,VALID,91.0265,VALID,-0.0849042,VALID,19.8356,VALID,144,VALID,0.475852,
2003-06-06, 01:58:00,VALID,916.122,VALID,0,VALID,90.9909,VALID,-0.0849042,VALID,19.8257,VALID,149,VALID,0.795847,
2003-06-06, 01:59:00,VALID,916.104,VALID,0,VALID,91.3635,VALID,-0.0849042,VALID,19.8098,VALID,181,VALID,1.09918,
2003-06-06, 02:00:00,VALID,916.075,VALID,0,VALID,91.6064,VALID,-0.0679233,VALID,19.8286,VALID,176,VALID,0.979818,
2003-06-06, 02:01:00,VALID,916.065,VALID,0,VALID,90.2903,VALID,-0.101885,VALID,19.8227,VALID,132,VALID,0.654297,
2003-06-06, 02:02:00,VALID,916.084,VALID,0,VALID,91.0914,VALID,-0.101885,VALID,19.7544,VALID,161,VALID,0.984821,
2003-06-06, 02:03:00,VALID,916.095,VALID,0,VALID,91.4602,VALID,-0.0849042,VALID,19.742,VALID,154,VALID,0.912861,
2003-06-06, 02:04:00,VALID,916.103,VALID,0,VALID,91.5085,VALID,-0.0849042,VALID,19.742,VALID,165,VALID,1.10062,
2003-06-06, 02:05:00,VALID,916.091,VALID,0,VALID,91.4818,VALID,-0.0849042,VALID,19.7906,VALID,167,VALID,1.1764,
2003-06-06, 02:06:00,VALID,916.094,VALID,0,VALID,91.1283,VALID,-0.101885,VALID,19.8192,VALID,158,VALID,0.918186,
2003-06-06, 02:07:00,VALID,916.066,VALID,0,VALID,91.052,VALID,-0.101885,VALID,19.8577,VALID,169,VALID,1.11957,
2003-06-06, 02:08:00,VALID,916.04,VALID,0,VALID,89.8465,VALID,-0.0679233,VALID,19.8674,VALID,78,VALID,0.571181,
2003-06-06, 02:09:00,VALID,916.04,VALID,0,VALID,90.5014,VALID,-0.0849042,VALID,19.8388,VALID,134,VALID,0.870536,
2003-06-06, 02:10:00,VALID,916.026,VALID,0,VALID,90.968,VALID,-0.0679233,VALID,19.842,VALID,153,VALID,1.2492,
2003-06-06, 02:11:00,VALID,916.011,VALID,0,VALID,90.921,VALID,-0.0509425,VALID,19.8929,VALID,169,VALID,1.16122,
2003-06-06, 02:12:00,VALID,915.986,VALID,0,VALID,90.1784,VALID,0.0169808,VALID,19.9602,VALID,122,VALID,0.807771,
2003-06-06, 02:13:00,VALID,915.973,VALID,0,VALID,90.1949,VALID,0,VALID,19.9568,VALID,138,VALID,0.959852,
2003-06-06, 02:14:00,VALID,915.971,VALID,0,VALID,90.2648,VALID,0.0169808,VALID,19.9173,VALID,155,VALID,0.713976,
2003-06-06, 02:15:00,VALID,915.935,VALID,0,VALID,90.2699,VALID,0,VALID,19.8954,VALID,145,VALID,0.692708,
2003-06-06, 02:16:00,VALID,915.923,VALID,0,VALID,90.2292,VALID,0.0169808,VALID,19.8532,VALID,135,VALID,0.392188,
2003-06-06, 02:17:00,VALID,915.909,VALID,0,VALID,90.7036,VALID,0.0169808,VALID,19.8252,VALID,158,VALID,0.532252,
2003-06-06, 02:18:00,VALID,915.924,VALID,0,VALID,90.9464,VALID,0.0169808,VALID,19.7981,VALID,141,VALID,0.835227,
2003-06-06, 02:19:00,VALID,915.922,VALID,0,VALID,90.804,VALID,0,VALID,19.8212,VALID,152,VALID,1.07216,
2003-06-06, 02:20:00,VALID,915.92,VALID,0,VALID,90.7315,VALID,0.0509425,VALID,19.8594,VALID,154,VALID,1.71745,
2003-06-06, 02:21:00,VALID,915.905,VALID,0,VALID,90.0334,VALID,0.0169808,VALID,20.0047,VALID,174,VALID,0.797743,
2003-06-06, 02:22:00,VALID,915.898,VALID,0,VALID,89.4714,VALID,0.0339617,VALID,20.1015,VALID,164,VALID,0.646484,
2003-06-06, 02:23:00,VALID,915.907,VALID,0,VALID,88.936,VALID,0,VALID,20.1666,VALID,152,VALID,1.16562,
2003-06-06, 02:24:00,VALID,915.919,VALID,0,VALID,88.7669,VALID,0.0169808,VALID,20.186,VALID,151,VALID,0.689103,
2003-06-06, 02:25:00,VALID,915.907,VALID,0,VALID,88.7516,VALID,0,VALID,20.1663,VALID,136,VALID,0.785038,
2003-06-06, 02:26:00,VALID,915.921,VALID,0,VALID,89.0746,VALID,0.0339617,VALID,20.1477,VALID,162,VALID,0.792146,
2003-06-06, 02:27:00,VALID,915.914,VALID,0,VALID,88.8826,VALID,-0.0169808,VALID,20.1251,VALID,137,VALID,0.213759,
2003-06-06, 02:28:00,VALID,915.921,VALID,0,VALID,89.2043,VALID,-0.0169808,VALID,20.077,VALID,112,VALID,0.865885,
2003-06-06, 02:29:00,VALID,915.913,VALID,0,VALID,89.6812,VALID,0,VALID,20.0213,VALID,147,VALID,0.921441,
2003-06-06, 02:30:00,VALID,915.905,VALID,0,VALID,89.6901,VALID,0.0169808,VALID,19.9729,VALID,153,VALID,0.994866,
2003-06-06, 02:31:00,VALID,915.868,VALID,0,VALID,89.9088,VALID,0,VALID,19.9374,VALID,158,VALID,1.00962,
2003-06-06, 02:32:00,VALID,915.844,VALID,0,VALID,89.9698,VALID,0,VALID,19.9409,VALID,157,VALID,0.955729,
2003-06-06, 02:33:00,VALID,915.835,VALID,0,VALID,89.8172,VALID,-0.0169808,VALID,19.9307,VALID,151,VALID,0.679482,
2003-06-06, 02:34:00,VALID,915.806,VALID,0,VALID,89.7397,VALID,0.0169808,VALID,19.9178,VALID,121,VALID,0.582465,
2003-06-06, 02:35:00,VALID,915.798,VALID,0,VALID,89.7219,VALID,-0.0169808,VALID,19.8602,VALID,82,VALID,0.697049,
2003-06-06, 02:36:00,VALID,915.797,VALID,0,VALID,90.6959,VALID,-0.0169808,VALID,19.8093,VALID,91,VALID,0.971571,
2003-06-06, 02:37:00,VALID,915.776,VALID,0,VALID,91.174,VALID,-0.0169808,VALID,19.741,VALID,106,VALID,0.972098,
2003-06-06, 02:38:00,VALID,915.744,VALID,0,VALID,91.2999,VALID,0,VALID,19.7281,VALID,129,VALID,0.86238,
2003-06-06, 02:39:00,VALID,915.735,VALID,0,VALID,91.0558,VALID,-0.0169808,VALID,19.7343,VALID,128,VALID,0.991951,
2003-06-06, 02:40:00,VALID,915.726,VALID,0,VALID,90.7951,VALID,-0.0339617,VALID,19.773,VALID,110,VALID,0.822368,
2003-06-06, 02:41:00,VALID,915.72,VALID,0,VALID,90.5815,VALID,0,VALID,19.7993,VALID,138,VALID,0.492622,
2003-06-06, 02:42:00,VALID,915.743,VALID,0,VALID,90.5789,VALID,0,VALID,19.7859,VALID,128,VALID,0.648655,
2003-06-06, 02:43:00,VALID,915.764,VALID,0,VALID,90.6463,VALID,0,VALID,19.7929,VALID,107,VALID,0.721571,
2003-06-06, 02:44:00,VALID,915.781,VALID,0,VALID,90.6234,VALID,0,VALID,19.8028,VALID,94,VALID,1.02433,
2003-06-06, 02:45:00,VALID,915.783,VALID,0,VALID,90.5332,VALID,0,VALID,19.8182,VALID,117,VALID,1.1228,
2003-06-06, 02:46:00,VALID,915.764,VALID,0,VALID,90.2496,VALID,0,VALID,19.8666,VALID,159,VALID,1.22822,
2003-06-06, 02:47:00,VALID,915.736,VALID,0,VALID,89.966,VALID,0,VALID,19.9185,VALID,162,VALID,0.903166,
2003-06-06, 02:48:00,VALID,915.735,VALID,0,VALID,89.4167,VALID,-0.0169808,VALID,19.9379,VALID,127,VALID,0.730686,
2003-06-06, 02:49:00,VALID,915.745,VALID,0,VALID,89.8986,VALID,0,VALID,19.8768,VALID,92,VALID,1.35872,
2003-06-06, 02:50:00,VALID,915.761,VALID,0,VALID,90.3424,VALID,-0.0169808,VALID,19.8346,VALID,145,VALID,1.07422,
2003-06-06, 02:51:00,VALID,915.748,VALID,0,VALID,90.1186,VALID,0,VALID,19.8247,VALID,188,VALID,0.668973,
2003-06-06, 02:52:00,VALID,915.728,VALID,0,VALID,89.7346,VALID,-0.0169808,VALID,19.8122,VALID,127,VALID,0.603766,
2003-06-06, 02:53:00,VALID,915.743,VALID,0,VALID,89.9279,VALID,-0.0339617,VALID,19.7221,VALID,79,VALID,1.13897,
2003-06-06, 02:54:00,VALID,915.754,VALID,0,VALID,91.2796,VALID,-0.0339617,VALID,19.6449,VALID,120,VALID,0.898643,
2003-06-06, 02:55:00,VALID,915.743,VALID,0,VALID,91.2999,VALID,0,VALID,19.628,VALID,169,VALID,0.810764,
2003-06-06, 02:56:00,VALID,915.71,VALID,0,VALID,91.2529,VALID,0,VALID,19.6213,VALID,155,VALID,0.64605,
2003-06-06, 02:57:00,VALID,915.694,VALID,0,VALID,91.0278,VALID,-0.0169808,VALID,19.622,VALID,106,VALID,0.875651,
2003-06-06, 02:58:00,VALID,915.72,VALID,0,VALID,91.347,VALID,0,VALID,19.6317,VALID,116,VALID,0.66808,
2003-06-06, 02:59:00,VALID,915.734,VALID,0,VALID,91.1499,VALID,0,VALID,19.6446,VALID,154,VALID,0.255208,
2003-06-06, 03:00:00,VALID,915.746,VALID,0,VALID,91.0901,VALID,0,VALID,19.6476,VALID,151,VALID,0.362216,
2003-06-06, 03:01:00,VALID,915.746,VALID,0,VALID,90.9858,VALID,0,VALID,19.6315,VALID,146,VALID,0.928865,
2003-06-06, 03:02:00,VALID,915.739,VALID,0,VALID,91.1092,VALID,-0.0339617,VALID,19.6121,VALID,172,VALID,0.641276,
2003-06-06, 03:03:00,VALID,915.692,VALID,0,VALID,91.0049,VALID,-0.0169808,VALID,19.6228,VALID,155,VALID,0.297092,
2003-06-06, 03:04:00,VALID,915.664,VALID,0,VALID,90.6908,VALID,0,VALID,19.5473,VALID,123,VALID,0.460938,
2003-06-06, 03:05:00,VALID,915.662,VALID,0,VALID,91.8925,VALID,-0.0169808,VALID,19.522,VALID,91,VALID,1.25826,
2003-06-06, 03:06:00,VALID,915.65,VALID,0,VALID,92.3032,VALID,-0.0339617,VALID,19.5897,VALID,115,VALID,0.750801,
2003-06-06, 03:07:00,VALID,915.628,VALID,0,VALID,90.9541,VALID,-0.0509425,VALID,19.6871,VALID,119,VALID,0.528646,
2003-06-06, 03:08:00,VALID,915.6,VALID,0,VALID,90.8676,VALID,-0.0509425,VALID,19.6801,VALID,145,VALID,0.577303,
2003-06-06, 03:09:00,VALID,915.591,VALID,0,VALID,91.0087,VALID,-0.0339617,VALID,19.6871,VALID,97,VALID,0.870226,
2003-06-06, 03:10:00,VALID,915.59,VALID,0,VALID,91.1779,VALID,-0.0509425,VALID,19.661,VALID,104,VALID,0.413845,
2003-06-06, 03:11:00,VALID,915.575,VALID,0,VALID,91.0952,VALID,-0.0339617,VALID,19.6384,VALID,123,VALID,0.603516,
2003-06-06, 03:12:00,VALID,915.57,VALID,0,VALID,91.0609,VALID,-0.0169808,VALID,19.6188,VALID,160,VALID,0.854911,
2003-06-06, 03:13:00,VALID,915.55,VALID,0,VALID,90.9146,VALID,0,VALID,19.6061,VALID,139,VALID,0.783454,
2003-06-06, 03:14:00,VALID,915.562,VALID,0,VALID,90.8371,VALID,-0.0339617,VALID,19.5418,VALID,73,VALID,1.14134,
2003-06-06, 03:15:00,VALID,915.553,VALID,0,VALID,91.9332,VALID,0,VALID,19.4606,VALID,100,VALID,0.826891,
2003-06-06, 03:16:00,VALID,915.528,VALID,0,VALID,91.8009,VALID,-0.0339617,VALID,19.4641,VALID,90,VALID,0.674262,
2003-06-06, 03:17:00,VALID,915.533,VALID,0,VALID,91.8811,VALID,-0.0169808,VALID,19.4547,VALID,152,VALID,0.834635,
2003-06-06, 03:18:00,VALID,915.521,VALID,0,VALID,91.8327,VALID,-0.0169808,VALID,19.4447,VALID,125,VALID,0.583767,
2003-06-06, 03:19:00,VALID,915.533,VALID,0,VALID,91.7132,VALID,-0.0339617,VALID,19.4415,VALID,164,VALID,0.703571,
2003-06-06, 03:20:00,VALID,915.551,VALID,0,VALID,91.7348,VALID,-0.0509425,VALID,19.4383,VALID,120,VALID,0.514423,
2003-06-06, 03:21:00,VALID,915.579,VALID,0,VALID,91.4665,VALID,-0.0169808,VALID,19.3926,VALID,110,VALID,0.549716,
2003-06-06, 03:22:00,VALID,915.576,VALID,0,VALID,91.8658,VALID,-0.0169808,VALID,19.3869,VALID,165,VALID,0.635074,
2003-06-06, 03:23:00,VALID,915.595,VALID,0,VALID,91.7666,VALID,-0.0339617,VALID,19.3673,VALID,170,VALID,0.765408,
2003-06-06, 03:24:00,VALID,915.594,VALID,0,VALID,92.2931,VALID,-0.0339617,VALID,19.3735,VALID,171,VALID,0.884549,
2003-06-06, 03:25:00,VALID,915.605,VALID,0,VALID,92.3287,VALID,-0.0169808,VALID,19.4058,VALID,160,VALID,0.587891,
2003-06-06, 03:26:00,VALID,915.622,VALID,0,VALID,92.04,VALID,-0.0169808,VALID,19.4415,VALID,171,VALID,0.461384,
2003-06-06, 03:27:00,VALID,915.629,VALID,0,VALID,90.8752,VALID,-0.0849042,VALID,19.4226,VALID,154,VALID,0.09375,
2003-06-06, 03:28:00,VALID,915.622,VALID,0,VALID,91.5365,VALID,-0.0679233,VALID,19.3774,VALID,155,VALID,0.729877,
2003-06-06, 03:29:00,VALID,915.628,VALID,0,VALID,91.9497,VALID,-0.101885,VALID,19.3779,VALID,168,VALID,0.655222,
2003-06-06, 03:30:00,VALID,915.642,VALID,0,VALID,92.2218,VALID,-0.0679233,VALID,19.3941,VALID,174,VALID,0.474175,
2003-06-06, 03:31:00,VALID,915.655,VALID,0,VALID,92.1773,VALID,-0.0679233,VALID,19.4288,VALID,178,VALID,0.40408,
2003-06-06, 03:32:00,VALID,915.674,VALID,0,VALID,91.2605,VALID,-0.0849042,VALID,19.4291,VALID,178,VALID,0.0199653,
2003-06-06, 03:33:00,VALID,915.673,VALID,0,VALID,90.9706,VALID,-0.0509425,VALID,19.3618,VALID,164,VALID,0.249777,
2003-06-06, 03:34:00,VALID,915.665,VALID,0,VALID,92.1214,VALID,-0.0849042,VALID,19.3255,VALID,153,VALID,0.358774,
2003-06-06, 03:35:00,VALID,915.63,VALID,0,VALID,93.0115,VALID,-0.0849042,VALID,19.3715,VALID,162,VALID,0.830966,